Huntingburg, IN

12:34 PM EDT on May 29, 2017 (GMT -0400)
Huntingburg

Weather History for KHNB - March, 2012

Change the Weather History Date:

Thursday, March 15, 2012

  Actual Average Record
Temperature  
Mean Temperature 69 °F -  
Max Temperature 78 °F 51 °F 80 °F (2016)
Min Temperature 60 °F 33 °F 18 °F (2017)
Cooling Degree Days 4    
Growing Degree Days 19 (Base 50)    
Moisture  
Dew Point 59 °F    
Average Humidity 76    
Maximum Humidity 88    
Minimum Humidity 53    
Precipitation  
Precipitation 0.00 in - - ()
Sea Level Pressure  
Sea Level Pressure 30.13 in    
Wind  
Wind Speed 9 mph (SSW)    
Max Wind Speed 21 mph    
Max Gust Speed 32 mph    
Visibility 10 miles    
Events Thunderstorm    
Averages and records for this station are not official NWS values.
T = Trace of Precipitation, MM = Missing Value Source: NWS Daily Summary

Daily Weather History Graph

Daily Weather History Graph

Search for Another Location

Airport or City:

Trip Planner

Search our weather history database for the weather conditions in past years. The results will help you decide how hot, cold, wet, or windy it might be!

Date:

Astronomy

Mar. 15, 2012 Rise Set
Actual Time 7:58 AM EDT 7:55 PM EDT
Civil Twilight 7:31 AM EDT 8:21 PM EDT
Nautical Twilight 7:01 AM EDT 8:52 PM EDT
Astronomical Twilight 6:30 AM EDT 9:23 PM EDT
Moon 3:20 AM EDT (3/15) 1:17 PM EDT (3/15)
Length of Visible Light 12h 49m
Length of Day
11h 57m
Last Quarter, 43% of the Moon is Illuminated
Mar 15
Last Quarter
Mar 22
New
Mar 30
First Quarter
Apr 6
Full
Apr 13
Last Quarter

Hourly Weather History & Observations

Time (EDT) Temp. Dew Point Humidity Pressure Visibility Wind Dir Wind Speed Gust Speed Precip Events Conditions
12:15 AM 68.0 °F 57.2 °F 68% 30.11 in 10.0 mi South 8.1 mph - N/A   Partly Cloudy
12:35 AM 66.2 °F 57.2 °F 73% 30.11 in 10.0 mi South 8.1 mph - N/A   Clear
12:55 AM 66.2 °F 57.2 °F 73% 30.11 in 10.0 mi South 9.2 mph - N/A   Clear
1:15 AM 66.2 °F 57.2 °F 73% 30.10 in 10.0 mi South 8.1 mph - N/A   Clear
1:35 AM 66.2 °F 57.2 °F 73% 30.10 in 10.0 mi SSW 8.1 mph - N/A   Clear
1:55 AM 66.2 °F 57.2 °F 73% 30.11 in 10.0 mi SSW 8.1 mph - N/A   Clear
2:15 AM 66.2 °F 57.2 °F 73% 30.12 in 10.0 mi SSW 9.2 mph - N/A   Clear
2:35 AM 64.4 °F 57.2 °F 77% 30.12 in 10.0 mi SSW 8.1 mph - N/A   Clear
2:55 AM 64.4 °F 57.2 °F 77% 30.12 in 10.0 mi South 9.2 mph - N/A   Clear
3:15 AM 64.4 °F 57.2 °F 77% 30.12 in 10.0 mi SSW 8.1 mph - N/A   Clear
3:35 AM 64.4 °F 57.2 °F 77% 30.12 in 10.0 mi SSW 6.9 mph - N/A   Clear
3:55 AM 64.4 °F 57.2 °F 77% 30.12 in 10.0 mi SSW 9.2 mph - N/A   Scattered Clouds
4:15 AM 64.4 °F 57.2 °F 77% 30.12 in 10.0 mi SW 10.4 mph - N/A   Partly Cloudy
4:35 AM 64.4 °F 57.2 °F 77% 30.12 in 10.0 mi SW 10.4 mph - N/A   Clear
5:15 AM 62.6 °F 57.2 °F 82% 30.12 in 10.0 mi SSW 10.4 mph - N/A   Clear
5:35 AM 62.6 °F 57.2 °F 82% 30.12 in 10.0 mi SSW 10.4 mph - N/A   Clear
5:55 AM 64.4 °F 57.2 °F 77% 30.12 in 10.0 mi SSW 10.4 mph - N/A   Scattered Clouds
6:15 AM 64.4 °F 57.2 °F 77% 30.13 in 10.0 mi SSW 5.8 mph - N/A   Partly Cloudy
6:35 AM 62.6 °F 57.2 °F 82% 30.13 in 10.0 mi South 4.6 mph - N/A   Partly Cloudy
6:55 AM 62.6 °F 57.2 °F 82% 30.14 in 10.0 mi SSW 5.8 mph - N/A   Partly Cloudy
7:35 AM 62.6 °F 57.2 °F 82% 30.17 in 10.0 mi South 5.8 mph - N/A   Partly Cloudy
7:55 AM 62.6 °F 57.2 °F 82% 30.17 in 10.0 mi SSW 6.9 mph - N/A   Clear
8:15 AM 62.6 °F 57.2 °F 82% 30.17 in 10.0 mi SSW 5.8 mph - N/A   Clear
8:35 AM 62.6 °F 57.2 °F 82% 30.17 in 10.0 mi SSW 9.2 mph - N/A   Clear
8:55 AM 62.6 °F 57.2 °F 82% 30.18 in 10.0 mi SSW 8.1 mph - N/A   Clear
9:15 AM 62.6 °F 57.2 °F 82% 30.18 in 10.0 mi SSW 9.2 mph - N/A   Clear
9:35 AM 62.6 °F 59.0 °F 88% 30.18 in 10.0 mi SSW 9.2 mph - N/A   Clear
9:55 AM 62.6 °F 59.0 °F 88% 30.18 in 10.0 mi SW 11.5 mph - N/A   Clear
10:15 AM 66.2 °F 60.8 °F 83% 30.18 in 10.0 mi SW 11.5 mph - N/A   Clear
10:35 AM 66.2 °F 60.8 °F 83% 30.18 in 10.0 mi SW 9.2 mph - N/A   Clear
10:55 AM 69.8 °F 62.6 °F 78% 30.18 in 10.0 mi SW 6.9 mph - N/A   Clear
11:15 AM 71.6 °F 62.6 °F 73% 30.18 in 10.0 mi SW 9.2 mph - N/A   Clear
11:35 AM 71.6 °F 62.6 °F 73% 30.16 in 10.0 mi SSW 10.4 mph - N/A   Clear
11:55 AM 73.4 °F 62.6 °F 69% 30.15 in 10.0 mi SW 9.2 mph - N/A   Clear
12:15 PM 73.4 °F 62.6 °F 69% 30.15 in 10.0 mi SW 10.4 mph - N/A   Clear
12:35 PM 73.4 °F 62.6 °F 69% 30.14 in 10.0 mi SW 9.2 mph - N/A   Clear
12:55 PM 75.2 °F 64.4 °F 69% 30.15 in 10.0 mi SSW 6.9 mph - N/A   Clear
1:15 PM 78.8 °F 64.4 °F 61% 30.14 in 10.0 mi SW 12.7 mph - N/A   Clear
1:35 PM 78.8 °F 64.4 °F 61% 30.13 in 10.0 mi South 12.7 mph - N/A   Clear
1:55 PM 78.8 °F 62.6 °F 57% 30.12 in 10.0 mi South 11.5 mph - N/A   Scattered Clouds
2:15 PM 78.8 °F 62.6 °F 57% 30.11 in 10.0 mi SW 11.5 mph - N/A Thunderstorm Partly Cloudy
2:35 PM 78.8 °F 62.6 °F 57% 30.11 in 7.0 mi SSW 15.0 mph - N/A Thunderstorm Scattered Clouds
2:55 PM 75.2 °F 62.6 °F 65% 30.11 in 8.0 mi SSW 13.8 mph 20.7 mph N/A Thunderstorm Thunderstorm
3:15 PM 73.4 °F 55.4 °F 53% 30.11 in 10.0 mi West 20.7 mph 32.2 mph N/A Thunderstorm Thunderstorm
3:35 PM 62.6 °F 55.4 °F 77% 30.16 in 10.0 mi WNW 10.4 mph - N/A Thunderstorm Thunderstorm
3:55 PM 60.8 °F 55.4 °F 82% 30.15 in 10.0 mi NW 4.6 mph - N/A Thunderstorm Thunderstorm
4:15 PM 60.8 °F 57.2 °F 88% 30.14 in 10.0 mi ENE 6.9 mph - N/A Thunderstorm Partly Cloudy
4:35 PM 62.6 °F 57.2 °F 82% 30.13 in 10.0 mi NE 8.1 mph - N/A   Clear
4:55 PM 64.4 °F 57.2 °F 77% 30.12 in 10.0 mi ENE 6.9 mph - N/A   Clear
5:15 PM 64.4 °F 57.2 °F 77% 30.09 in 10.0 mi NE 6.9 mph - N/A   Clear
5:35 PM 64.4 °F 57.2 °F 77% 30.12 in 10.0 mi ESE 5.8 mph - N/A   Partly Cloudy
5:55 PM 64.4 °F 57.2 °F 77% 30.11 in 10.0 mi Calm Calm - N/A   Partly Cloudy
6:15 PM 62.6 °F 57.2 °F 82% 30.11 in 10.0 mi South 10.4 mph - N/A   Partly Cloudy
6:35 PM 62.6 °F 57.2 °F 82% 30.11 in 10.0 mi SSW 6.9 mph - N/A   Mostly Cloudy
6:55 PM 62.6 °F 57.2 °F 82% 30.10 in 10.0 mi SSE 5.8 mph - N/A   Partly Cloudy
7:15 PM 62.6 °F 57.2 °F 82% 30.11 in 10.0 mi SSE 8.1 mph - N/A   Clear
7:55 PM 62.6 °F 57.2 °F 82% 30.11 in 10.0 mi SSE 8.1 mph - N/A   Partly Cloudy
8:15 PM 62.6 °F 57.2 °F 82% 30.12 in 10.0 mi South 9.2 mph 19.6 mph N/A   Partly Cloudy
8:35 PM 60.8 °F 55.4 °F 82% 30.13 in 10.0 mi South 11.5 mph - N/A   Clear
8:55 PM 60.8 °F 55.4 °F 82% 30.13 in 10.0 mi South 5.8 mph - N/A   Clear
9:15 PM 59.0 °F 55.4 °F 88% 30.12 in 4.0 mi SSE 4.6 mph - N/A   Clear
9:35 PM 57.2 °F 55.4 °F 94% 30.12 in 10.0 mi SE 6.9 mph - N/A   Partly Cloudy
9:55 PM 57.2 °F 55.4 °F 94% 30.13 in 10.0 mi SSE 5.8 mph - N/A   Partly Cloudy
10:15 PM 57.2 °F 55.4 °F 94% 30.13 in 6.0 mi South 6.9 mph - N/A   Partly Cloudy
10:35 PM 57.2 °F 55.4 °F 94% 30.13 in 4.0 mi South 5.8 mph - N/A   Partly Cloudy
10:55 PM 57.2 °F 55.4 °F 94% 30.14 in 10.0 mi South 4.6 mph - N/A   Scattered Clouds
11:15 PM 57.2 °F 55.4 °F 94% 30.14 in 10.0 mi SSE 4.6 mph - N/A   Mostly Cloudy
11:35 PM 57.2 °F 55.4 °F 94% 30.13 in 9.0 mi ESE 5.8 mph - N/A   Scattered Clouds
11:55 PM 59.0 °F 55.4 °F 88% 30.13 in 10.0 mi SE 6.9 mph - N/A   Mostly Cloudy